Norman Wells, Northwest Territories

1:33 PM MDT on June 26, 2017 (GMT -0600)
Norman Wells

Weather History for CYVQ - October, 2012

Change the Weather History Date:

Tuesday, October 2, 2012

  Actual Average Record
Temperature  
Mean Temperature 36 °F -  
Max Temperature 45 °F 27 °F 66 °F (2003)
Min Temperature 27 °F 15 °F 12 °F (1999)
Degree Days  
Heating Degree Days 29    
Moisture  
Dew Point 31 °F    
Average Humidity 78    
Maximum Humidity 100    
Minimum Humidity 42    
Precipitation  
Precipitation 0.00 in 0.04 in - ()
Sea Level Pressure  
Sea Level Pressure 30.41 in    
Wind  
Wind Speed 8 mph ()    
Max Wind Speed 16 mph    
Max Gust Speed 22 mph    
Visibility 13.8 miles    
Events Rain , Snow    
Averages and records for this station are not official NWS values.
T = Trace of Precipitation, MM = Missing Value Source: Averaged Metar Reports

Daily Weather History Graph

Daily Weather History Graph

Search for Another Location

Airport or City:

Trip Planner

Search our weather history database for the weather conditions in past years. The results will help you decide how hot, cold, wet, or windy it might be!

Date:

Astronomy

Oct. 02, 2012 Rise Set
Actual Time 8:42 AM MDT 7:48 PM MDT
Civil Twilight 7:52 AM MDT 8:38 PM MDT
Nautical Twilight 6:53 AM MDT 9:36 PM MDT
Astronomical Twilight 5:50 AM MDT 10:39 PM MDT
Moon 7:36 PM MDT (10/2) 12:40 PM MDT (10/2)
Length of Visible Light 12h 45m
Length of Day
11h 06m
Waning Gibbous, 94% of the Moon is Illuminated
Oct 2
Waning Gibbous
Oct 8
Last Quarter
Oct 15
New
Oct 21
First Quarter
Oct 29
Full

Hourly Weather History & Observations

Time (MDT) Temp. Windchill Dew Point Humidity Pressure Visibility Wind Dir Wind Speed Gust Speed Precip Events Conditions
12:00 AM 35.6 °F 25.9 °F 33.8 °F 93% 30.32 in 15.0 mi West 16.1 mph 21.9 mph N/A Snow Light Snow
12:17 AM - - - N/A% - 10.0 mi West 11.5 mph - N/A Rain Light Rain
1:00 AM 35.6 °F 27.5 °F 35.6 °F 100% 30.35 in 10.0 mi West 11.5 mph 18.4 mph N/A Rain , Snow Light Rain
2:00 AM 35.6 °F 26.2 °F 33.8 °F 93% 30.37 in 20.0 mi WNW 15.0 mph - N/A   Overcast
3:00 AM 35.6 °F 28.0 °F 33.8 °F 93% 30.39 in 30.0 mi WSW 10.4 mph - N/A   Overcast
4:00 AM 35.6 °F 28.6 °F 33.8 °F 93% 30.41 in 30.0 mi WNW 9.2 mph - N/A   Mostly Cloudy
5:00 AM 33.8 °F 27.0 °F 33.8 °F 100% 30.43 in 30.0 mi WNW 8.1 mph - N/A   Mostly Cloudy
6:00 AM 34 °F - 32 °F 90% 30.45 in 28 mi West 4.6 mph - -   Partly Cloudy
6:00 AM 33.8 °F 29.6 °F 32.0 °F 93% 30.45 in 30.0 mi West 4.6 mph - N/A   Mostly Cloudy
7:00 AM 33.8 °F 30.8 °F 32.0 °F 93% 30.46 in 30.0 mi NW 3.5 mph - N/A   Mostly Cloudy
8:00 AM 33.8 °F 26.4 °F 32.0 °F 93% 30.47 in 30.0 mi West 9.2 mph - N/A   Mostly Cloudy
9:00 AM 30.2 °F 26.7 °F 30.2 °F 100% 30.47 in 30.0 mi North 3.5 mph - N/A   Partly Cloudy
10:00 AM 28.4 °F 24.6 °F 26.6 °F 93% 30.48 in 30.0 mi NE 3.5 mph - N/A   Mostly Cloudy
11:00 AM 33.8 °F 30.8 °F 32.0 °F 93% 30.48 in 30.0 mi ENE 3.5 mph - N/A   Partly Cloudy
12:00 PM 37 °F - 33 °F 82% 30.48 in 28 mi SE 4.6 mph - -   Scattered Clouds
12:00 PM 37.4 °F 33.8 °F 33.8 °F 87% 30.48 in 30.0 mi SE 4.6 mph - N/A   Partly Cloudy
1:00 PM 39.2 °F 35.9 °F 33.8 °F 81% 30.47 in 30.0 mi ESE 4.6 mph - N/A   Partly Cloudy
2:00 PM 41.0 °F 35.8 °F 32.0 °F 70% 30.46 in 30.0 mi SE 8.1 mph - N/A   Partly Cloudy
3:00 PM 42.8 °F 39.3 °F 28.4 °F 57% 30.44 in 30.0 mi ESE 5.8 mph - N/A   Partly Cloudy
4:00 PM 44.6 °F 42.2 °F 28.4 °F 53% 30.43 in 30.0 mi ENE 4.6 mph - N/A   Partly Cloudy
5:00 PM 44.6 °F 41.4 °F 28.4 °F 53% 30.41 in 30.0 mi ESE 5.8 mph - N/A   Partly Cloudy
6:00 PM 45 °F - 29 °F 42% 30.39 in 28 mi ESE 9.2 mph - -   Scattered Clouds
6:00 PM 44.6 °F 39.7 °F 30.2 °F 57% 30.39 in 30.0 mi ESE 9.2 mph - N/A   Partly Cloudy
7:00 PM 42.8 °F 38.6 °F 28.4 °F 57% 30.37 in 30.0 mi ESE 6.9 mph - N/A   Partly Cloudy
8:00 PM 39.2 °F 34.2 °F 26.6 °F 61% 30.34 in 30.0 mi East 6.9 mph - N/A   Partly Cloudy
9:00 PM 39.2 °F 34.2 °F 24.8 °F 56% 30.32 in 30.0 mi East 6.9 mph - N/A   Partly Cloudy
10:00 PM 39.2 °F 34.2 °F 23.0 °F 52% 30.31 in 30.0 mi East 6.9 mph - N/A   Partly Cloudy
11:00 PM 32.0 °F - 24.8 °F 75% 30.31 in 30.0 mi NE 2.3 mph - N/A   Partly Cloudy